When you browse on this site, cookies collect data to enhance your experience and personalize the content and advertising you see.
Visit our Privacy Policy to learn more. By continuing to use the site, you agree to this use of cookies and data.
  • In Hungary
  • List of Countries
  • For 7 days
  • Water Temperature
  • Satellite Maps
  • Weather Map
  • News
  • Weather Widgets
  • user-avatar
    Login

    Hourly Weather Pola de Siero

    Today, 21 November, Wednesday

    Time Temperature Precipitation Wind Pressure Humidity
    00:00 +7°C° 0 mm 2 mps 727 mmHg 95%
    01:00 +7°C° 0.2 mm 2 mps 727 mmHg 95%
    02:00 +7°C° 0.2 mm 2 mps 727 mmHg 95%
    03:00 +8°C° 0.2 mm 1 mps 726 mmHg 96%
    04:00 +7°C° 0.1 mm 2 mps 727 mmHg 96%
    05:00 +6°C° 0.1 mm 2 mps 727 mmHg 95%
    06:00 +6°C° 0.1 mm 2 mps 727 mmHg 95%
    07:00 +7°C° 0.2 mm 2 mps 727 mmHg 93%
    08:00 +8°C° 0.2 mm 2 mps 727 mmHg 91%
    09:00 +8°C° 0.2 mm 2 mps 728 mmHg 89%
    10:00 +9°C° 0.2 mm 2 mps 728 mmHg 85%
    11:00 +10°C° 0.2 mm 2 mps 728 mmHg 81%
    12:00 +11°C° 0.2 mm 3 mps 728 mmHg 77%
    13:00 +13°C° 0.2 mm 2 mps 728 mmHg 76%
    14:00 +13°C° 0.2 mm 2 mps 729 mmHg 76%
    15:00 +13°C° 0.2 mm 2 mps 729 mmHg 75%
    16:00 +10°C° 0.2 mm 2 mps 729 mmHg 79%
    17:00 +9°C° 0.2 mm 2 mps 729 mmHg 83%
    18:00 +8°C° 0.2 mm 2 mps 730 mmHg 86%
    19:00 +8°C° 0.3 mm 2 mps 730 mmHg 87%
    20:00 +8°C° 0.3 mm 3 mps 731 mmHg 88%
    21:00 +8°C° 0.3 mm 3 mps 731 mmHg 89%
    22:00 +8°C° 0.2 mm 3 mps 731 mmHg 88%
    23:00 +7°C° 0.2 mm 3 mps 732 mmHg 88%

    Tomorrow, 22 November, Thursday

    Time Temperature Precipitation Wind Pressure Humidity
    00:00 +7°C° 0.2 mm 3 mps 732 mmHg 88%
    01:00 +7°C° 0.1 mm 3 mps 732 mmHg 87%
    02:00 +7°C° 0.1 mm 3 mps 732 mmHg 87%
    03:00 +7°C° 0.1 mm 3 mps 732 mmHg 87%
    04:00 +7°C° 0 mm 3 mps 732 mmHg 86%
    05:00 +7°C° 0 mm 3 mps 732 mmHg 86%
    06:00 +7°C° 0 mm 3 mps 732 mmHg 85%
    07:00 +8°C° 0.1 mm 3 mps 732 mmHg 83%
    08:00 +8°C° 0.1 mm 3 mps 733 mmHg 81%
    09:00 +8°C° 0.1 mm 3 mps 733 mmHg 79%
    10:00 +9°C° 0 mm 3 mps 733 mmHg 75%
    11:00 +10°C° 0 mm 3 mps 733 mmHg 71%
    12:00 +11°C° 0 mm 3 mps 733 mmHg 67%
    13:00 +11°C° 0 mm 3 mps 733 mmHg 67%
    14:00 +13°C° 0 mm 2 mps 733 mmHg 67%
    15:00 +13°C° 0 mm 2 mps 733 mmHg 68%
    16:00 +10°C° 0 mm 2 mps 733 mmHg 72%
    17:00 +9°C° 0 mm 2 mps 733 mmHg 76%
    18:00 +8°C° 0 mm 3 mps 733 mmHg 81%
    19:00 +8°C° 0 mm 3 mps 733 mmHg 81%
    20:00 +8°C° 0 mm 3 mps 733 mmHg 81%
    21:00 +8°C° 0 mm 3 mps 733 mmHg 82%
    22:00 +8°C° 0.1 mm 3 mps 733 mmHg 83%
    23:00 +8°C° 0.1 mm 3 mps 733 mmHg 85%

    Day after tomorrow, 23 November, Friday

    Time Temperature Precipitation Wind Pressure Humidity
    00:00 +8°C° 0.1 mm 3 mps 733 mmHg 87%
    01:00 +8°C° 0.2 mm 3 mps 734 mmHg 88%
    02:00 +8°C° 0.2 mm 3 mps 734 mmHg 89%
    03:00 +8°C° 0.2 mm 3 mps 734 mmHg 90%
    04:00 +7°C° 0 mm 3 mps 734 mmHg 90%
    05:00 +7°C° 0 mm 3 mps 734 mmHg 90%
    06:00 +5°C° 0 mm 3 mps 734 mmHg 90%
    07:00 +7°C° 0 mm 3 mps 734 mmHg 88%
    08:00 +7°C° 0 mm 3 mps 735 mmHg 86%
    09:00 +7°C° 0 mm 3 mps 735 mmHg 84%
    10:00 +9°C° 0 mm 3 mps 735 mmHg 78%
    11:00 +10°C° 0 mm 3 mps 735 mmHg 72%
    12:00 +11°C° 0 mm 3 mps 735 mmHg 67%
    13:00 +11°C° 0 mm 3 mps 735 mmHg 67%
    14:00 +11°C° 0 mm 3 mps 735 mmHg 68%
    15:00 +11°C° 0 mm 3 mps 734 mmHg 69%
    16:00 +10°C° 0 mm 3 mps 735 mmHg 72%
    17:00 +9°C° 0 mm 3 mps 735 mmHg 75%
    18:00 +9°C° 0 mm 3 mps 735 mmHg 78%
    19:00 +8°C° 0 mm 3 mps 735 mmHg 79%
    20:00 +8°C° 0 mm 3 mps 735 mmHg 81%
    21:00 +8°C° 0 mm 3 mps 736 mmHg 82%
    22:00 +8°C° 0 mm 3 mps 735 mmHg 82%
    23:00 +8°C° 0 mm 3 mps 735 mmHg 82%

    24 November, Saturday

    Time Temperature Precipitation Wind Pressure Humidity
    00:00 +8°C° 0 mm 3 mps 735 mmHg 82%
    01:00 +8°C° 0 mm 3 mps 735 mmHg 82%
    02:00 +8°C° 0 mm 3 mps 735 mmHg 82%
    03:00 +8°C° 0 mm 3 mps 734 mmHg 82%
    04:00 +8°C° 0 mm 3 mps 734 mmHg 82%
    05:00 +8°C° 0 mm 3 mps 734 mmHg 82%
    06:00 +8°C° 0 mm 3 mps 733 mmHg 81%
    07:00 +8°C° 0 mm 4 mps 733 mmHg 80%
    08:00 +8°C° 0 mm 4 mps 733 mmHg 78%
    09:00 +8°C° 0 mm 4 mps 733 mmHg 77%
    10:00 +9°C° 0 mm 5 mps 732 mmHg 76%
    11:00 +10°C° 0 mm 5 mps 731 mmHg 74%
    12:00 +10°C° 0 mm 5 mps 730 mmHg 73%
    13:00 +10°C° 0.2 mm 5 mps 729 mmHg 76%
    14:00 +11°C° 0.2 mm 4 mps 728 mmHg 79%
    15:00 +11°C° 0.2 mm 4 mps 728 mmHg 82%
    16:00 +11°C° 0.3 mm 4 mps 727 mmHg 83%
    17:00 +11°C° 0.3 mm 4 mps 727 mmHg 84%
    18:00 +10°C° 0.3 mm 4 mps 727 mmHg 84%
    19:00 +9°C° 1.3 mm 5 mps 727 mmHg 88%
    20:00 +9°C° 1.3 mm 5 mps 728 mmHg 91%
    21:00 +8°C° 1.3 mm 5 mps 728 mmHg 95%
    22:00 +8°C° 0.8 mm 5 mps 729 mmHg 94%
    23:00 +7°C° 0.8 mm 5 mps 729 mmHg 93%

    25 November, Sunday

    Time Temperature Precipitation Wind Pressure Humidity
    00:00 +7°C° 0.8 mm 4 mps 729 mmHg 92%
    01:00 +7°C° 0 mm 4 mps 729 mmHg 90%
    02:00 +6°C° 0 mm 4 mps 729 mmHg 89%
    03:00 +5°C° 0 mm 4 mps 730 mmHg 87%
    04:00 +5°C° 0 mm 4 mps 730 mmHg 84%
    05:00 +5°C° 0 mm 5 mps 730 mmHg 82%
    06:00 +5°C° 0 mm 5 mps 730 mmHg 79%
    07:00 +5°C° 0 mm 4 mps 731 mmHg 77%
    08:00 +6°C° 0 mm 4 mps 731 mmHg 74%
    09:00 +7°C° 0 mm 4 mps 731 mmHg 72%
    10:00 +8°C° 0 mm 4 mps 731 mmHg 68%
    11:00 +10°C° 0 mm 4 mps 731 mmHg 65%
    12:00 +11°C° 0 mm 4 mps 731 mmHg 62%
    13:00 +11°C° 0 mm 3 mps 731 mmHg 65%
    14:00 +10°C° 0 mm 3 mps 731 mmHg 68%
    15:00 +10°C° 0 mm 3 mps 731 mmHg 71%
    16:00 +9°C° 0.6 mm 3 mps 730 mmHg 77%
    17:00 +9°C° 0.6 mm 2 mps 730 mmHg 84%
    18:00 +8°C° 0.6 mm 2 mps 730 mmHg 91%
    19:00 +8°C° 0.1 mm 3 mps 730 mmHg 91%
    20:00 +9°C° 0.1 mm 3 mps 730 mmHg 90%
    21:00 +9°C° 0.1 mm 3 mps 730 mmHg 90%
    22:00 +8°C° 0.1 mm 4 mps 730 mmHg 89%
    23:00 +8°C° 0.1 mm 5 mps 731 mmHg 88%

    26 November, Monday

    Time Temperature Precipitation Wind Pressure Humidity
    00:00 +8°C° 0.1 mm 6 mps 731 mmHg 88%
    01:00 +7°C° 0 mm 6 mps 732 mmHg 86%
    02:00 +7°C° 0 mm 5 mps 732 mmHg 85%
    03:00 +6°C° 0 mm 5 mps 733 mmHg 84%
    04:00 +6°C° 0.1 mm 5 mps 733 mmHg 83%
    05:00 +6°C° 0.1 mm 5 mps 733 mmHg 83%
    06:00 +6°C° 0.1 mm 5 mps 733 mmHg 83%
    07:00 +7°C° 0.2 mm 6 mps 733 mmHg 81%
    08:00 +6°C° 0.2 mm 7 mps 733 mmHg 79%
    09:00 +7°C° 0.2 mm 8 mps 734 mmHg 77%
    10:00 +7°C° 0.2 mm 8 mps 734 mmHg 76%
    11:00 +8°C° 0.2 mm 7 mps 734 mmHg 74%
    12:00 +9°C° 0.2 mm 7 mps 735 mmHg 72%
    13:00 +9°C° 0.1 mm 7 mps 735 mmHg 73%
    14:00 +9°C° 0.1 mm 6 mps 735 mmHg 73%
    15:00 +9°C° 0.1 mm 5 mps 735 mmHg 74%
    16:00 +8°C° 0.2 mm 5 mps 736 mmHg 77%
    17:00 +8°C° 0.2 mm 5 mps 737 mmHg 79%
    18:00 +7°C° 0.2 mm 5 mps 737 mmHg 82%
    19:00 +7°C° 0 mm 4 mps 738 mmHg 82%
    20:00 +6°C° 0 mm 4 mps 738 mmHg 82%
    21:00 +5°C° 0 mm 4 mps 738 mmHg 82%
    22:00 +6°C° 0 mm 4 mps 738 mmHg 81%
    23:00 +6°C° 0 mm 4 mps 738 mmHg 79%
    Show more